Miscellaneous Local Product
Issued by NWS Hastings, NE

Home | Current Version | Previous Version | Graphics & Text | Print | Product List | Glossary On
Versions: 1 2 3 4 5 6 7 8 9 10 11 12 13 14 15 16 17 18 19 20 21 22 23 24 25 26 27 28 29 30 31 32 33 34 35 36 37 38 39 40 41 42 43 44 45 46 47 48 49 50
000
AXUS43 KGID 310702
MISGRI

GID CWA HOURLY WEATHER ROUNDUP
NATIONAL WEATHER SERVICE HASTINGS NE
200 AM CDT THU JUL 31 2014

NOTE: "FAIR" INDICATES FEW OR NO CLOUDS BELOW 12,000 FEET WITH NO
SIGNIFICANT WEATHER AND/OR OBSTRUCTIONS TO VISIBILITY.

...SOUTH CENTRAL NEBRASKA...

CITY           SKY/WX    TMP DP  RH WIND       PRES   REMARKS
GRAND ISLAND   CLEAR     61  55  81 SW5       30.15F
HASTINGS       CLEAR     62  54  74 S3        30.15F
KEARNEY        CLEAR     63  54  72 S8        30.16F
ORD            MOCLDY    64  58  80 SE3       30.13S
YORK           CLEAR     59  57  94 CALM      30.14F
AURORA         CLEAR     59  57  92 SW5       30.13F
LEXINGTON      CLEAR     62  57  84 SW3       30.17S
HOLDREGE       PTCLDY    62  54  73 CALM      30.16F
HEBRON         PTCLDY    56  52  86 CALM      30.14S

...NEBRASKA PANHANDLE...

CITY           SKY/WX    TMP DP  RH WIND       PRES   REMARKS
CHADRON        CLOUDY    61  52  72 CALM      30.17S
ALLIANCE       CLOUDY    57  55  93 W7        30.21S
SCOTTSBLUFF    MOCLDY    61  58  90 NE6       30.22F
SIDNEY         PTCLDY    58  56  93 W6        30.26F

...WESTERN AND NORTH CENTRAL NEBRASKA...

CITY           SKY/WX    TMP DP  RH WIND       PRES   REMARKS
VALENTINE      CLEAR     61  52  72 SW8       30.09F
AINSWORTH      PTCLDY    64  53  67 S8        30.11F
ONEILL         CLEAR     64  59  85 SE6       30.13F
BROKEN BOW     PTCLDY    56  54  93 CALM      30.15F
IMPERIAL       PTCLDY    59  56  89 W7        30.22F
NORTH PLATTE   PTCLDY    57  55  93 CALM      30.17F
MCCOOK         CLEAR     62  59  90 W7        30.19F

...EASTERN NEBRASKA...

CITY           SKY/WX    TMP DP  RH WIND       PRES   REMARKS
NORFOLK        CLEAR     59  54  83 SE5       30.12F
SO SIOUX CITY  CLEAR     55  54  96 CALM      30.11S
TEKAMAH        CLEAR     58  53  84 CALM      30.11F
ALBION         PTCLDY    59  55  87 CALM      30.13F
OMAHA EPPLEY   PTCLDY    61  57  87 CALM      30.11F
OFFUTT AFB     CLEAR     55  55 100 CALM      30.11S
MILLARD        CLEAR     61  58  91 CALM      30.11F
LINCOLN        CLEAR     61  55  81 CALM      30.13F
NEBRASKA CITY  CLEAR     63  54  72 S3        30.12S
BEATRICE       CLEAR     57  56  95 CALM      30.12F
FALLS CITY     CLEAR     60  56  86 CALM      30.10F

...NORTHERN KANSAS...

CITY           SKY/WX    TMP DP  RH WIND       PRES   REMARKS
GOODLAND       CLEAR     58  56  93 W7        30.26F
HILL CITY      PTCLDY    60  54  80 CALM      30.18F
NORTON         SUNNY     63  50  63 S3        30.16F
PHILLIPSBURG   CLEAR     64  57  77 CALM      30.17S
SMITH CENTER   CLEAR     61  54  77 CALM      30.16F
HAYS           PTCLDY    61  54  77 W5        30.17F
RUSSELL        PTCLDY    62  59  90 W8        30.15F
CONCORDIA      MOCLDY    61  55  81 CALM      30.13S
SALINA         PTCLDY    62  56  80 CALM      30.14S
TOPEKA         CLEAR     60  58  92 CALM      30.11S



USA.gov is the U.S. government's official web portal to all federal, state and local government web resources and services.